Location: Comstock Ranch
(38.0499°N, 120.2627°W)
Time: 20:29:51
(UTC+00:00)

Cosmos 1602 Rocket - Pass Details

Date: 08 September 2024
Orbit: 600 x 628 km, 82.5° (Epoch: 10 October)

Event Time Altitude Azimuth Distance (km) Brightness Sun altitude
Rises 12:52:31 0° 342° (NNW) 2,926 7.0 -9.5°
Reaches altitude 10° 12:54:56 10° 332° (NNW) 2,013 6.1 -9.0°
Maximum altitude 12:58:53 32° 270° (W) 1,086 4.3 -8.3°
Drops below altitude 10° 13:02:48 10° 207° (SSW) 1,992 5.8 -7.5°
Sets 13:05:11 0° 197° (SSW) 2,889 6.7 -7.1°
